iso_date,epoch_date,Year,Hour,Min,DOY,POS_DOY,Lat,Lon,BP,Ts,Ta,has_bp,has_ts,has_ta,BuoyID,Buoy_Type,Buoy_Owner,Logistics,Hemisphere
2020-07-06T18:00:00Z,1594058400,2020,18,0,188.75,188.75,62.031,-53.024,-999.00,5.38,-999.0,no,yes,no,300234068243270,SVPGHI,AOML,UNKNOWN,North
2020-07-06T19:00:02Z,1594062003,2020,19,0,188.7917,188.7917,62.035,-53.018,-999.00,5.33,-999.0,no,yes,no,300234068243270,SVPGHI,AOML,UNKNOWN,North
2020-07-06T19:59:57Z,1594065597,2020,20,0,188.8333,188.8333,62.039,-53.012,-999.00,5.34,-999.0,no,yes,no,300234068243270,SVPGHI,AOML,UNKNOWN,North
2020-07-06T21:00:00Z,1594069200,2020,21,0,188.875,188.875,62.04,-53.006,-999.00,5.32,-999.0,no,yes,no,300234068243270,SVPGHI,AOML,UNKNOWN,North
2020-07-06T22:00:02Z,1594072803,2020,22,0,188.9167,188.9167,62.043,-53.004,-999.00,5.37,-999.0,no,yes,no,300234068243270,SVPGHI,AOML,UNKNOWN,North
2020-07-06T22:59:57Z,1594076397,2020,23,0,188.9583,188.9583,62.045,-53.002,-999.00,5.4,-999.0,no,yes,no,300234068243270,SVPGHI,AOML,UNKNOWN,North
2020-07-07T00:00:00Z,1594080000,2020,0,0,189.0,189.0,62.046,-53.002,-999.00,5.41,-999.0,no,yes,no,300234068243270,SVPGHI,AOML,UNKNOWN,North
2020-07-07T01:00:02Z,1594083603,2020,1,0,189.0417,189.0417,62.043,-53.004,-999.00,5.4,-999.0,no,yes,no,300234068243270,SVPGHI,AOML,UNKNOWN,North
2020-07-07T01:59:57Z,1594087197,2020,2,0,189.0833,189.0833,62.041,-53.007,-999.00,5.39,-999.0,no,yes,no,300234068243270,SVPGHI,AOML,UNKNOWN,North
2020-07-07T03:00:00Z,1594090800,2020,3,0,189.125,189.125,62.04,-53.01,-999.00,5.37,-999.0,no,yes,no,300234068243270,SVPGHI,AOML,UNKNOWN,North
2020-07-07T04:00:02Z,1594094403,2020,4,0,189.1667,189.1667,62.041,-53.012,-999.00,5.35,-999.0,no,yes,no,300234068243270,SVPGHI,AOML,UNKNOWN,North
2020-07-07T04:59:57Z,1594097997,2020,5,0,189.2083,189.2083,62.043,-53.01,-999.00,5.33,-999.0,no,yes,no,300234068243270,SVPGHI,AOML,UNKNOWN,North
2020-07-07T06:00:00Z,1594101600,2020,6,0,189.25,189.25,62.047,-53.011,-999.00,5.3,-999.0,no,yes,no,300234068243270,SVPGHI,AOML,UNKNOWN,North
2020-07-07T07:01:03Z,1594105263,2020,7,1,189.2924,189.2924,62.053,-53.013,-999.00,5.27,-999.0,no,yes,no,300234068243270,SVPGHI,AOML,UNKNOWN,North
2020-07-07T08:03:59Z,1594109039,2020,8,4,189.3361,189.3361,62.057,-53.008,-999.00,5.25,-999.0,no,yes,no,300234068243270,SVPGHI,AOML,UNKNOWN,North
2020-07-07T09:00:00Z,1594112400,2020,9,0,189.375,189.375,62.061,-53.003,-999.00,5.25,-999.0,no,yes,no,300234068243270,SVPGHI,AOML,UNKNOWN,North
2020-07-07T10:00:02Z,1594116003,2020,10,0,189.4167,189.4167,62.065,-52.996,-999.00,5.25,-999.0,no,yes,no,300234068243270,SVPGHI,AOML,UNKNOWN,North
2020-07-07T10:59:57Z,1594119597,2020,11,0,189.4583,189.4583,62.066,-52.989,-999.00,5.28,-999.0,no,yes,no,300234068243270,SVPGHI,AOML,UNKNOWN,North
2020-07-07T12:00:00Z,1594123200,2020,12,0,189.5,189.5,62.067,-52.986,-999.00,5.36,-999.0,no,yes,no,300234068243270,SVPGHI,AOML,UNKNOWN,North
2020-07-07T13:00:02Z,1594126803,2020,13,0,189.5417,189.5417,62.068,-52.983,-999.00,5.41,-999.0,no,yes,no,300234068243270,SVPGHI,AOML,UNKNOWN,North
2020-07-07T13:59:57Z,1594130397,2020,14,0,189.5833,189.5833,62.069,-52.985,-999.00,5.53,-999.0,no,yes,no,300234068243270,SVPGHI,AOML,UNKNOWN,North
2020-07-07T15:00:00Z,1594134000,2020,15,0,189.625,189.625,62.066,-52.981,-999.00,5.66,-999.0,no,yes,no,300234068243270,SVPGHI,AOML,UNKNOWN,North
2020-07-07T16:00:02Z,1594137603,2020,16,0,189.6667,189.6667,62.067,-52.978,-999.00,5.5,-999.0,no,yes,no,300234068243270,SVPGHI,AOML,UNKNOWN,North
2020-07-07T16:59:57Z,1594141197,2020,17,0,189.7083,189.7083,62.066,-52.978,-999.00,5.58,-999.0,no,yes,no,300234068243270,SVPGHI,AOML,UNKNOWN,North
2020-07-07T18:00:00Z,1594144800,2020,18,0,189.75,189.75,62.068,-52.983,-999.00,5.66,-999.0,no,yes,no,300234068243270,SVPGHI,AOML,UNKNOWN,North
2020-07-07T19:01:03Z,1594148463,2020,19,1,189.7924,189.7924,62.074,-52.989,-999.00,5.65,-999.0,no,yes,no,300234068243270,SVPGHI,AOML,UNKNOWN,North
2020-07-07T19:59:57Z,1594151997,2020,20,0,189.8333,189.8333,62.081,-52.99,-999.00,5.83,-999.0,no,yes,no,300234068243270,SVPGHI,AOML,UNKNOWN,North
2020-07-07T21:00:00Z,1594155600,2020,21,0,189.875,189.875,62.088,-52.984,-999.00,5.82,-999.0,no,yes,no,300234068243270,SVPGHI,AOML,UNKNOWN,North
2020-07-07T22:00:02Z,1594159203,2020,22,0,189.9167,189.9167,62.095,-52.981,-999.00,5.61,-999.0,no,yes,no,300234068243270,SVPGHI,AOML,UNKNOWN,North
2020-07-07T22:59:57Z,1594162797,2020,23,0,189.9583,189.9583,62.1,-52.977,-999.00,5.53,-999.0,no,yes,no,300234068243270,SVPGHI,AOML,UNKNOWN,North
2020-07-08T00:00:00Z,1594166400,2020,0,0,190.0,190.0,62.104,-52.97,-999.00,5.46,-999.0,no,yes,no,300234068243270,SVPGHI,AOML,UNKNOWN,North
2020-07-08T01:00:02Z,1594170003,2020,1,0,190.0417,190.0417,62.105,-52.964,-999.00,5.45,-999.0,no,yes,no,300234068243270,SVPGHI,AOML,UNKNOWN,North
2020-07-08T01:59:57Z,1594173597,2020,2,0,190.0833,190.0833,62.105,-52.961,-999.00,5.45,-999.0,no,yes,no,300234068243270,SVPGHI,AOML,UNKNOWN,North
2020-07-08T03:00:00Z,1594177200,2020,3,0,190.125,190.125,62.105,-52.955,-999.00,5.42,-999.0,no,yes,no,300234068243270,SVPGHI,AOML,UNKNOWN,North
2020-07-08T04:00:02Z,1594180803,2020,4,0,190.1667,190.1667,62.105,-52.952,-999.00,5.4,-999.0,no,yes,no,300234068243270,SVPGHI,AOML,UNKNOWN,North
2020-07-08T04:59:57Z,1594184397,2020,5,0,190.2083,190.2083,62.105,-52.951,-999.00,5.39,-999.0,no,yes,no,300234068243270,SVPGHI,AOML,UNKNOWN,North
2020-07-08T06:00:00Z,1594188000,2020,6,0,190.25,190.25,62.109,-52.952,-999.00,5.38,-999.0,no,yes,no,300234068243270,SVPGHI,AOML,UNKNOWN,North
2020-07-08T07:00:02Z,1594191603,2020,7,0,190.2917,190.2917,62.114,-52.953,-999.00,5.36,-999.0,no,yes,no,300234068243270,SVPGHI,AOML,UNKNOWN,North
2020-07-08T07:59:57Z,1594195197,2020,8,0,190.3333,190.3333,62.121,-52.95,-999.00,5.34,-999.0,no,yes,no,300234068243270,SVPGHI,AOML,UNKNOWN,North
2020-07-08T09:00:00Z,1594198800,2020,9,0,190.375,190.375,62.129,-52.944,-999.00,5.29,-999.0,no,yes,no,300234068243270,SVPGHI,AOML,UNKNOWN,North
2020-07-08T10:00:02Z,1594202403,2020,10,0,190.4167,190.4167,62.137,-52.932,-999.00,5.21,-999.0,no,yes,no,300234068243270,SVPGHI,AOML,UNKNOWN,North
2020-07-08T12:00:00Z,1594209600,2020,12,0,190.5,190.5,62.154,-52.915,-999.00,5.1,-999.0,no,yes,no,300234068243270,SVPGHI,AOML,UNKNOWN,North
2020-07-08T13:00:02Z,1594213203,2020,13,0,190.5417,190.5417,62.163,-52.898,-999.00,5.08,-999.0,no,yes,no,300234068243270,SVPGHI,AOML,UNKNOWN,North
2020-07-08T13:59:57Z,1594216797,2020,14,0,190.5833,190.5833,62.168,-52.884,-999.00,5.04,-999.0,no,yes,no,300234068243270,SVPGHI,AOML,UNKNOWN,North
2020-07-08T15:00:00Z,1594220400,2020,15,0,190.625,190.625,62.171,-52.864,-999.00,5.0,-999.0,no,yes,no,300234068243270,SVPGHI,AOML,UNKNOWN,North
2020-07-08T16:00:02Z,1594224003,2020,16,0,190.6667,190.6667,62.174,-52.85,-999.00,5.0,-999.0,no,yes,no,300234068243270,SVPGHI,AOML,UNKNOWN,North
2020-07-08T16:59:57Z,1594227597,2020,17,0,190.7083,190.7083,62.177,-52.834,-999.00,5.02,-999.0,no,yes,no,300234068243270,SVPGHI,AOML,UNKNOWN,North
2020-07-08T18:04:01Z,1594231442,2020,18,4,190.7528,190.7528,62.185,-52.825,-999.00,5.03,-999.0,no,yes,no,300234068243270,SVPGHI,AOML,UNKNOWN,North
2020-07-08T19:03:56Z,1594235036,2020,19,4,190.7944,190.7944,62.19,-52.82,-999.00,5.03,-999.0,no,yes,no,300234068243270,SVPGHI,AOML,UNKNOWN,North
2020-07-08T20:02:58Z,1594238579,2020,20,3,190.8354,190.8354,62.197,-52.814,-999.00,5.02,-999.0,no,yes,no,300234068243270,SVPGHI,AOML,UNKNOWN,North
2020-07-08T21:01:00Z,1594242060,2020,21,1,190.8757,190.8757,62.209,-52.809,-999.00,4.99,-999.0,no,yes,no,300234068243270,SVPGHI,AOML,UNKNOWN,North
2020-07-08T22:00:02Z,1594245603,2020,22,0,190.9167,190.9167,62.223,-52.797,-999.00,4.97,-999.0,no,yes,no,300234068243270,SVPGHI,AOML,UNKNOWN,North
2020-07-08T22:59:57Z,1594249197,2020,23,0,190.9583,190.9583,62.236,-52.782,-999.00,4.93,-999.0,no,yes,no,300234068243270,SVPGHI,AOML,UNKNOWN,North
2020-07-09T00:02:00Z,1594252921,2020,0,2,191.0014,191.0014,62.248,-52.76,-999.00,4.92,-999.0,no,yes,no,300234068243270,SVPGHI,AOML,UNKNOWN,North
2020-07-09T01:00:02Z,1594256403,2020,1,0,191.0417,191.0417,62.254,-52.739,-999.00,4.9,-999.0,no,yes,no,300234068243270,SVPGHI,AOML,UNKNOWN,North
2020-07-09T01:59:57Z,1594259997,2020,2,0,191.0833,191.0833,62.26,-52.714,-999.00,4.9,-999.0,no,yes,no,300234068243270,SVPGHI,AOML,UNKNOWN,North
2020-07-09T03:00:00Z,1594263600,2020,3,0,191.125,191.125,62.26,-52.694,-999.00,4.91,-999.0,no,yes,no,300234068243270,SVPGHI,AOML,UNKNOWN,North
2020-07-09T04:00:02Z,1594267203,2020,4,0,191.1667,191.1667,62.261,-52.681,-999.00,4.92,-999.0,no,yes,no,300234068243270,SVPGHI,AOML,UNKNOWN,North
2020-07-09T04:59:57Z,1594270797,2020,5,0,191.2083,191.2083,62.262,-52.675,-999.00,4.94,-999.0,no,yes,no,300234068243270,SVPGHI,AOML,UNKNOWN,North
2020-07-09T06:00:00Z,1594274400,2020,6,0,191.25,191.25,62.268,-52.668,-999.00,4.95,-999.0,no,yes,no,300234068243270,SVPGHI,AOML,UNKNOWN,North
2020-07-09T07:02:03Z,1594278124,2020,7,2,191.2931,191.2931,62.278,-52.661,-999.00,4.98,-999.0,no,yes,no,300234068243270,SVPGHI,AOML,UNKNOWN,North
2020-07-09T08:03:59Z,1594281839,2020,8,4,191.3361,191.3361,62.284,-52.649,-999.00,4.98,-999.0,no,yes,no,300234068243270,SVPGHI,AOML,UNKNOWN,North
2020-07-09T09:01:00Z,1594285260,2020,9,1,191.3757,191.3757,62.294,-52.638,-999.00,4.99,-999.0,no,yes,no,300234068243270,SVPGHI,AOML,UNKNOWN,North
2020-07-09T10:02:55Z,1594288976,2020,10,3,191.4187,191.4187,62.303,-52.62,-999.00,5.0,-999.0,no,yes,no,300234068243270,SVPGHI,AOML,UNKNOWN,North
2020-07-09T11:03:59Z,1594292639,2020,11,4,191.4611,191.4611,62.321,-52.611,-999.00,5.01,-999.0,no,yes,no,300234068243270,SVPGHI,AOML,UNKNOWN,North
2020-07-09T13:00:02Z,1594299603,2020,13,0,191.5417,191.5417,62.325,-52.575,-999.00,5.03,-999.0,no,yes,no,300234068243270,SVPGHI,AOML,UNKNOWN,North
2020-07-09T14:03:59Z,1594303439,2020,14,4,191.5861,191.5861,62.344,-52.59,-999.00,5.04,-999.0,no,yes,no,300234068243270,SVPGHI,AOML,UNKNOWN,North
2020-07-09T15:00:00Z,1594306800,2020,15,0,191.625,191.625,62.33,-52.554,-999.00,5.04,-999.0,no,yes,no,300234068243270,SVPGHI,AOML,UNKNOWN,North
2020-07-09T16:00:02Z,1594310403,2020,16,0,191.6667,191.6667,62.331,-52.538,-999.00,5.06,-999.0,no,yes,no,300234068243270,SVPGHI,AOML,UNKNOWN,North
2020-07-09T16:59:57Z,1594313997,2020,17,0,191.7083,191.7083,62.33,-52.525,-999.00,5.08,-999.0,no,yes,no,300234068243270,SVPGHI,AOML,UNKNOWN,North
2020-07-09T18:04:01Z,1594317842,2020,18,4,191.7528,191.7528,62.334,-52.519,-999.00,5.11,-999.0,no,yes,no,300234068243270,SVPGHI,AOML,UNKNOWN,North
2020-07-09T19:03:56Z,1594321436,2020,19,4,191.7944,191.7944,62.335,-52.523,-999.00,5.11,-999.0,no,yes,no,300234068243270,SVPGHI,AOML,UNKNOWN,North
2020-07-09T20:01:58Z,1594324918,2020,20,2,191.8347,191.8347,62.337,-52.518,-999.00,5.12,-999.0,no,yes,no,300234068243270,SVPGHI,AOML,UNKNOWN,North
2020-07-09T21:00:00Z,1594328400,2020,21,0,191.875,191.875,62.342,-52.518,-999.00,5.12,-999.0,no,yes,no,300234068243270,SVPGHI,AOML,UNKNOWN,North
2020-07-09T22:00:02Z,1594332003,2020,22,0,191.9167,191.9167,62.347,-52.516,-999.00,5.13,-999.0,no,yes,no,300234068243270,SVPGHI,AOML,UNKNOWN,North
2020-07-09T22:59:57Z,1594335597,2020,23,0,191.9583,191.9583,62.352,-52.518,-999.00,5.14,-999.0,no,yes,no,300234068243270,SVPGHI,AOML,UNKNOWN,North
2020-07-10T00:00:00Z,1594339200,2020,0,0,192.0,192.0,62.358,-52.514,-999.00,5.16,-999.0,no,yes,no,300234068243270,SVPGHI,AOML,UNKNOWN,North
2020-07-10T01:02:03Z,1594342924,2020,1,2,192.0431,192.0431,62.36,-52.508,-999.00,5.17,-999.0,no,yes,no,300234068243270,SVPGHI,AOML,UNKNOWN,North
2020-07-10T03:00:00Z,1594350000,2020,3,0,192.125,192.125,62.364,-52.494,-999.00,5.18,-999.0,no,yes,no,300234068243270,SVPGHI,AOML,UNKNOWN,North
2020-07-10T04:02:55Z,1594353776,2020,4,3,192.1687,192.1687,62.364,-52.488,-999.00,5.18,-999.0,no,yes,no,300234068243270,SVPGHI,AOML,UNKNOWN,North
2020-07-10T04:59:57Z,1594357197,2020,5,0,192.2083,192.2083,62.364,-52.486,-999.00,5.17,-999.0,no,yes,no,300234068243270,SVPGHI,AOML,UNKNOWN,North
2020-07-10T06:00:00Z,1594360800,2020,6,0,192.25,192.25,62.365,-52.483,-999.00,5.17,-999.0,no,yes,no,300234068243270,SVPGHI,AOML,UNKNOWN,North
2020-07-10T07:00:02Z,1594364403,2020,7,0,192.2917,192.2917,62.366,-52.481,-999.00,5.16,-999.0,no,yes,no,300234068243270,SVPGHI,AOML,UNKNOWN,North
2020-07-10T08:00:57Z,1594368058,2020,8,1,192.334,192.334,62.368,-52.476,-999.00,5.16,-999.0,no,yes,no,300234068243270,SVPGHI,AOML,UNKNOWN,North
2020-07-10T09:00:00Z,1594371600,2020,9,0,192.375,192.375,62.372,-52.473,-999.00,5.15,-999.0,no,yes,no,300234068243270,SVPGHI,AOML,UNKNOWN,North
2020-07-10T10:00:02Z,1594375203,2020,10,0,192.4167,192.4167,62.376,-52.468,-999.00,5.15,-999.0,no,yes,no,300234068243270,SVPGHI,AOML,UNKNOWN,North
2020-07-10T10:59:57Z,1594378797,2020,11,0,192.4583,192.4583,62.381,-52.465,-999.00,5.15,-999.0,no,yes,no,300234068243270,SVPGHI,AOML,UNKNOWN,North
2020-07-10T12:00:00Z,1594382400,2020,12,0,192.5,192.5,62.389,-52.458,-999.00,5.16,-999.0,no,yes,no,300234068243270,SVPGHI,AOML,UNKNOWN,North
2020-07-10T13:03:56Z,1594386236,2020,13,4,192.5444,192.5444,-90.0,-180.0,-999.00,5.18,-999.0,no,yes,no,300234068243270,SVPGHI,AOML,UNKNOWN,North
2020-07-10T14:03:59Z,1594389839,2020,14,4,192.5861,192.5861,62.396,-52.444,-999.00,5.21,-999.0,no,yes,no,300234068243270,SVPGHI,AOML,UNKNOWN,North
2020-07-10T15:02:00Z,1594393321,2020,15,2,192.6264,192.6264,62.4,-52.439,-999.00,5.22,-999.0,no,yes,no,300234068243270,SVPGHI,AOML,UNKNOWN,North
2020-07-10T16:02:55Z,1594396976,2020,16,3,192.6687,192.6687,62.402,-52.429,-999.00,5.23,-999.0,no,yes,no,300234068243270,SVPGHI,AOML,UNKNOWN,North
2020-07-10T16:59:57Z,1594400397,2020,17,0,192.7083,192.7083,62.403,-52.419,-999.00,5.24,-999.0,no,yes,no,300234068243270,SVPGHI,AOML,UNKNOWN,North
2020-07-10T18:00:00Z,1594404000,2020,18,0,192.75,192.75,62.402,-52.413,-999.00,5.22,-999.0,no,yes,no,300234068243270,SVPGHI,AOML,UNKNOWN,North
2020-07-10T19:00:02Z,1594407603,2020,19,0,192.7917,192.7917,62.404,-52.405,-999.00,5.25,-999.0,no,yes,no,300234068243270,SVPGHI,AOML,UNKNOWN,North
2020-07-10T19:59:57Z,1594411197,2020,20,0,192.8333,192.8333,62.409,-52.398,-999.00,5.24,-999.0,no,yes,no,300234068243270,SVPGHI,AOML,UNKNOWN,North
2020-07-10T21:00:00Z,1594414800,2020,21,0,192.875,192.875,62.409,-52.389,-999.00,5.19,-999.0,no,yes,no,300234068243270,SVPGHI,AOML,UNKNOWN,North
2020-07-10T22:01:03Z,1594418463,2020,22,1,192.9174,192.9174,62.411,-52.382,-999.00,5.19,-999.0,no,yes,no,300234068243270,SVPGHI,AOML,UNKNOWN,North
2020-07-10T22:59:57Z,1594421997,2020,23,0,192.9583,192.9583,62.414,-52.39,-999.00,5.16,-999.0,no,yes,no,300234068243270,SVPGHI,AOML,UNKNOWN,North
2020-07-11T00:01:00Z,1594425660,2020,0,1,193.0007,193.0007,62.418,-52.386,-999.00,5.12,-999.0,no,yes,no,300234068243270,SVPGHI,AOML,UNKNOWN,North
2020-07-11T01:00:02Z,1594429203,2020,1,0,193.0417,193.0417,62.424,-52.382,-999.00,5.06,-999.0,no,yes,no,300234068243270,SVPGHI,AOML,UNKNOWN,North
2020-07-11T01:59:57Z,1594432797,2020,2,0,193.0833,193.0833,62.433,-52.377,-999.00,5.06,-999.0,no,yes,no,300234068243270,SVPGHI,AOML,UNKNOWN,North
2020-07-11T03:00:00Z,1594436400,2020,3,0,193.125,193.125,62.439,-52.37,-999.00,5.05,-999.0,no,yes,no,300234068243270,SVPGHI,AOML,UNKNOWN,North
2020-07-11T04:00:02Z,1594440003,2020,4,0,193.1667,193.1667,62.442,-52.355,-999.00,5.06,-999.0,no,yes,no,300234068243270,SVPGHI,AOML,UNKNOWN,North
2020-07-11T04:59:57Z,1594443597,2020,5,0,193.2083,193.2083,62.443,-52.344,-999.00,5.05,-999.0,no,yes,no,300234068243270,SVPGHI,AOML,UNKNOWN,North
2020-07-11T06:00:00Z,1594447200,2020,6,0,193.25,193.25,62.445,-52.334,-999.00,5.05,-999.0,no,yes,no,300234068243270,SVPGHI,AOML,UNKNOWN,North
2020-07-11T07:00:02Z,1594450803,2020,7,0,193.2917,193.2917,62.448,-52.32,-999.00,5.05,-999.0,no,yes,no,300234068243270,SVPGHI,AOML,UNKNOWN,North
2020-07-11T07:59:57Z,1594454397,2020,8,0,193.3333,193.3333,62.449,-52.318,-999.00,5.05,-999.0,no,yes,no,300234068243270,SVPGHI,AOML,UNKNOWN,North
2020-07-11T09:01:00Z,1594458060,2020,9,1,193.3757,193.3757,62.451,-52.308,-999.00,5.05,-999.0,no,yes,no,300234068243270,SVPGHI,AOML,UNKNOWN,North
2020-07-11T10:00:02Z,1594461603,2020,10,0,193.4167,193.4167,62.453,-52.302,-999.00,5.07,-999.0,no,yes,no,300234068243270,SVPGHI,AOML,UNKNOWN,North
2020-07-11T10:59:57Z,1594465197,2020,11,0,193.4583,193.4583,62.455,-52.298,-999.00,5.08,-999.0,no,yes,no,300234068243270,SVPGHI,AOML,UNKNOWN,North
2020-07-11T12:00:00Z,1594468800,2020,12,0,193.5,193.5,62.457,-52.302,-999.00,5.12,-999.0,no,yes,no,300234068243270,SVPGHI,AOML,UNKNOWN,North
2020-07-11T13:02:03Z,1594472524,2020,13,2,193.5431,193.5431,62.459,-52.307,-999.00,5.13,-999.0,no,yes,no,300234068243270,SVPGHI,AOML,UNKNOWN,North
2020-07-11T13:59:57Z,1594475997,2020,14,0,193.5833,193.5833,62.465,-52.311,-999.00,5.22,-999.0,no,yes,no,300234068243270,SVPGHI,AOML,UNKNOWN,North
2020-07-11T15:00:00Z,1594479600,2020,15,0,193.625,193.625,62.47,-52.312,-999.00,5.32,-999.0,no,yes,no,300234068243270,SVPGHI,AOML,UNKNOWN,North
2020-07-11T16:00:02Z,1594483203,2020,16,0,193.6667,193.6667,62.476,-52.311,-999.00,5.47,-999.0,no,yes,no,300234068243270,SVPGHI,AOML,UNKNOWN,North
2020-07-11T16:59:57Z,1594486797,2020,17,0,193.7083,193.7083,62.482,-52.306,-999.00,5.61,-999.0,no,yes,no,300234068243270,SVPGHI,AOML,UNKNOWN,North
2020-07-11T18:03:01Z,1594490581,2020,18,3,193.7521,193.7521,62.489,-52.295,-999.00,5.66,-999.0,no,yes,no,300234068243270,SVPGHI,AOML,UNKNOWN,North
2020-07-11T19:00:02Z,1594494003,2020,19,0,193.7917,193.7917,62.492,-52.287,-999.00,5.73,-999.0,no,yes,no,300234068243270,SVPGHI,AOML,UNKNOWN,North
2020-07-11T19:59:57Z,1594497597,2020,20,0,193.8333,193.8333,62.493,-52.278,-999.00,5.77,-999.0,no,yes,no,300234068243270,SVPGHI,AOML,UNKNOWN,North
2020-07-11T21:00:00Z,1594501200,2020,21,0,193.875,193.875,62.495,-52.273,-999.00,5.75,-999.0,no,yes,no,300234068243270,SVPGHI,AOML,UNKNOWN,North
2020-07-11T22:00:02Z,1594504803,2020,22,0,193.9167,193.9167,62.496,-52.267,-999.00,5.76,-999.0,no,yes,no,300234068243270,SVPGHI,AOML,UNKNOWN,North
2020-07-11T22:59:57Z,1594508397,2020,23,0,193.9583,193.9583,62.497,-52.266,-999.00,5.76,-999.0,no,yes,no,300234068243270,SVPGHI,AOML,UNKNOWN,North
2020-07-12T00:00:00Z,1594512000,2020,0,0,194.0,194.0,62.498,-52.272,-999.00,5.69,-999.0,no,yes,no,300234068243270,SVPGHI,AOML,UNKNOWN,North
2020-07-12T01:01:03Z,1594515663,2020,1,1,194.0424,194.0424,62.502,-52.276,-999.00,5.66,-999.0,no,yes,no,300234068243270,SVPGHI,AOML,UNKNOWN,North
2020-07-12T01:59:57Z,1594519197,2020,2,0,194.0833,194.0833,62.507,-52.284,-999.00,5.64,-999.0,no,yes,no,300234068243270,SVPGHI,AOML,UNKNOWN,North
2020-07-12T03:00:00Z,1594522800,2020,3,0,194.125,194.125,62.512,-52.29,-999.00,5.59,-999.0,no,yes,no,300234068243270,SVPGHI,AOML,UNKNOWN,North
2020-07-12T04:00:02Z,1594526403,2020,4,0,194.1667,194.1667,62.517,-52.296,-999.00,5.59,-999.0,no,yes,no,300234068243270,SVPGHI,AOML,UNKNOWN,North
2020-07-12T04:59:57Z,1594529997,2020,5,0,194.2083,194.2083,62.523,-52.301,-999.00,5.56,-999.0,no,yes,no,300234068243270,SVPGHI,AOML,UNKNOWN,North
2020-07-12T06:01:00Z,1594533660,2020,6,1,194.2507,194.2507,62.53,-52.303,-999.00,5.54,-999.0,no,yes,no,300234068243270,SVPGHI,AOML,UNKNOWN,North
2020-07-12T07:00:02Z,1594537203,2020,7,0,194.2917,194.2917,62.535,-52.301,-999.00,5.53,-999.0,no,yes,no,300234068243270,SVPGHI,AOML,UNKNOWN,North
2020-07-12T07:59:57Z,1594540797,2020,8,0,194.3333,194.3333,62.541,-52.297,-999.00,5.52,-999.0,no,yes,no,300234068243270,SVPGHI,AOML,UNKNOWN,North
2020-07-12T09:00:00Z,1594544400,2020,9,0,194.375,194.375,62.547,-52.291,-999.00,5.55,-999.0,no,yes,no,300234068243270,SVPGHI,AOML,UNKNOWN,North
2020-07-12T10:00:02Z,1594548003,2020,10,0,194.4167,194.4167,62.552,-52.284,-999.00,5.57,-999.0,no,yes,no,300234068243270,SVPGHI,AOML,UNKNOWN,North
2020-07-12T10:59:57Z,1594551597,2020,11,0,194.4583,194.4583,62.556,-52.28,-999.00,5.65,-999.0,no,yes,no,300234068243270,SVPGHI,AOML,UNKNOWN,North
2020-07-12T12:00:00Z,1594555200,2020,12,0,194.5,194.5,62.556,-52.281,-999.00,5.69,-999.0,no,yes,no,300234068243270,SVPGHI,AOML,UNKNOWN,North
2020-07-12T13:00:02Z,1594558803,2020,13,0,194.5417,194.5417,62.557,-52.285,-999.00,5.7,-999.0,no,yes,no,300234068243270,SVPGHI,AOML,UNKNOWN,North
2020-07-12T13:59:57Z,1594562397,2020,14,0,194.5833,194.5833,62.561,-52.295,-999.00,5.86,-999.0,no,yes,no,300234068243270,SVPGHI,AOML,UNKNOWN,North
2020-07-12T15:00:00Z,1594566000,2020,15,0,194.625,194.625,62.565,-52.308,-999.00,5.97,-999.0,no,yes,no,300234068243270,SVPGHI,AOML,UNKNOWN,North
2020-07-12T16:00:02Z,1594569603,2020,16,0,194.6667,194.6667,62.572,-52.32,-999.00,6.26,-999.0,no,yes,no,300234068243270,SVPGHI,AOML,UNKNOWN,North
2020-07-12T16:59:57Z,1594573197,2020,17,0,194.7083,194.7083,62.58,-52.329,-999.00,6.31,-999.0,no,yes,no,300234068243270,SVPGHI,AOML,UNKNOWN,North
2020-07-12T18:00:00Z,1594576800,2020,18,0,194.75,194.75,62.589,-52.332,-999.00,6.27,-999.0,no,yes,no,300234068243270,SVPGHI,AOML,UNKNOWN,North
2020-07-12T19:00:02Z,1594580403,2020,19,0,194.7917,194.7917,62.597,-52.334,-999.00,6.39,-999.0,no,yes,no,300234068243270,SVPGHI,AOML,UNKNOWN,North
2020-07-12T19:59:57Z,1594583997,2020,20,0,194.8333,194.8333,62.604,-52.332,-999.00,6.22,-999.0,no,yes,no,300234068243270,SVPGHI,AOML,UNKNOWN,North
2020-07-12T21:00:00Z,1594587600,2020,21,0,194.875,194.875,62.608,-52.326,-999.00,6.14,-999.0,no,yes,no,300234068243270,SVPGHI,AOML,UNKNOWN,North
2020-07-12T22:00:02Z,1594591203,2020,22,0,194.9167,194.9167,62.611,-52.323,-999.00,6.17,-999.0,no,yes,no,300234068243270,SVPGHI,AOML,UNKNOWN,North
2020-07-12T22:59:57Z,1594594797,2020,23,0,194.9583,194.9583,62.615,-52.324,-999.00,6.3,-999.0,no,yes,no,300234068243270,SVPGHI,AOML,UNKNOWN,North
2020-07-13T00:00:00Z,1594598400,2020,0,0,195.0,195.0,62.616,-52.328,-999.00,6.19,-999.0,no,yes,no,300234068243270,SVPGHI,AOML,UNKNOWN,North
2020-07-13T01:00:02Z,1594602003,2020,1,0,195.0417,195.0417,62.617,-52.334,-999.00,6.17,-999.0,no,yes,no,300234068243270,SVPGHI,AOML,UNKNOWN,North
2020-07-13T01:59:57Z,1594605597,2020,2,0,195.0833,195.0833,62.618,-52.345,-999.00,5.9,-999.0,no,yes,no,300234068243270,SVPGHI,AOML,UNKNOWN,North
2020-07-13T03:01:00Z,1594609260,2020,3,1,195.1257,195.1257,62.622,-52.359,-999.00,5.63,-999.0,no,yes,no,300234068243270,SVPGHI,AOML,UNKNOWN,North
2020-07-13T04:00:02Z,1594612803,2020,4,0,195.1667,195.1667,62.626,-52.376,-999.00,5.81,-999.0,no,yes,no,300234068243270,SVPGHI,AOML,UNKNOWN,North
2020-07-13T04:59:57Z,1594616397,2020,5,0,195.2083,195.2083,62.631,-52.388,-999.00,5.64,-999.0,no,yes,no,300234068243270,SVPGHI,AOML,UNKNOWN,North
2020-07-13T06:00:00Z,1594620000,2020,6,0,195.25,195.25,62.637,-52.397,-999.00,5.51,-999.0,no,yes,no,300234068243270,SVPGHI,AOML,UNKNOWN,North
2020-07-13T07:00:02Z,1594623603,2020,7,0,195.2917,195.2917,62.643,-52.403,-999.00,5.42,-999.0,no,yes,no,300234068243270,SVPGHI,AOML,UNKNOWN,North
2020-07-13T08:01:58Z,1594627318,2020,8,2,195.3347,195.3347,62.649,-52.405,-999.00,5.38,-999.0,no,yes,no,300234068243270,SVPGHI,AOML,UNKNOWN,North
2020-07-13T09:00:00Z,1594630800,2020,9,0,195.375,195.375,62.652,-52.404,-999.00,5.32,-999.0,no,yes,no,300234068243270,SVPGHI,AOML,UNKNOWN,North
2020-07-13T10:00:02Z,1594634403,2020,10,0,195.4167,195.4167,62.653,-52.406,-999.00,5.44,-999.0,no,yes,no,300234068243270,SVPGHI,AOML,UNKNOWN,North
2020-07-13T10:59:57Z,1594637997,2020,11,0,195.4583,195.4583,62.654,-52.41,-999.00,5.4,-999.0,no,yes,no,300234068243270,SVPGHI,AOML,UNKNOWN,North
2020-07-13T12:00:00Z,1594641600,2020,12,0,195.5,195.5,62.655,-52.419,-999.00,5.38,-999.0,no,yes,no,300234068243270,SVPGHI,AOML,UNKNOWN,North
2020-07-13T13:00:02Z,1594645203,2020,13,0,195.5417,195.5417,62.655,-52.432,-999.00,5.38,-999.0,no,yes,no,300234068243270,SVPGHI,AOML,UNKNOWN,North
2020-07-13T15:00:00Z,1594652400,2020,15,0,195.625,195.625,62.663,-52.472,-999.00,5.44,-999.0,no,yes,no,300234068243270,SVPGHI,AOML,UNKNOWN,North
2020-07-13T16:00:02Z,1594656003,2020,16,0,195.6667,195.6667,62.674,-52.496,-999.00,5.43,-999.0,no,yes,no,300234068243270,SVPGHI,AOML,UNKNOWN,North
2020-07-13T16:59:57Z,1594659597,2020,17,0,195.7083,195.7083,62.677,-52.5,-999.00,5.45,-999.0,no,yes,no,300234068243270,SVPGHI,AOML,UNKNOWN,North